Iron Mountain, MI

8:32 AM CDT on April 24, 2017 (GMT -0500)
Ford

Weather History for KIMT - December, 2012

Change the Weather History Date:

Friday, December 21, 2012

  Actual Average Record
Temperature  
Mean Temperature 26 °F -  
Max Temperature 30 °F 26 °F 48 °F (1967)
Min Temperature 21 °F 9 °F -25 °F (1958)
Degree Days  
Heating Degree Days 40    
Moisture  
Dew Point 18 °F    
Average Humidity 78    
Maximum Humidity 85    
Minimum Humidity 74    
Precipitation  
Precipitation 0.00 in - - ()
Sea Level Pressure  
Sea Level Pressure 29.92 in    
Wind  
Wind Speed 22 mph (NNW)    
Max Wind Speed 26 mph    
Max Gust Speed 46 mph    
Visibility 9 miles    
Events Snow    
Averages and records for this station are not official NWS values.
T = Trace of Precipitation, MM = Missing Value Source: NWS Daily Summary

Daily Weather History Graph

Daily Weather History Graph

Search for Another Location

Airport or City:

Trip Planner

Search our weather history database for the weather conditions in past years. The results will help you decide how hot, cold, wet, or windy it might be!

Date:

Astronomy

Dec. 21, 2012 Rise Set
Actual Time 7:30 AM CST 4:10 PM CST
Civil Twilight 6:56 AM CST 4:45 PM CST
Nautical Twilight 6:18 AM CST 5:23 PM CST
Astronomical Twilight 5:42 AM CST 5:59 PM CST
Moon 12:09 PM CST (12/21) 1:04 AM CST (12/21)
Length of Visible Light 9h 48m
Length of Day
8h 39m
Waxing Gibbous, 65% of the Moon is Illuminated
Dec 21
Waxing Gibbous
Dec 28
Full
Jan 4
Last Quarter
Jan 11
New
Jan 18
First Quarter

Hourly Weather History & Observations

Time (CST) Temp. Windchill Dew Point Humidity Pressure Visibility Wind Dir Wind Speed Gust Speed Precip Events Conditions
12:54 AM 30.0 °F 15.7 °F 26.1 °F 85% 29.59 in 5.0 mi NNW 26.5 mph 33.4 mph 0.00 in   Overcast
1:54 AM 28.9 °F 16.1 °F 24.1 °F 82% 29.63 in 10.0 mi NNW 19.6 mph 35.7 mph 0.00 in   Overcast
2:54 AM 28.0 °F 13.6 °F 23.0 °F 81% 29.66 in 10.0 mi NW 24.2 mph 29.9 mph 0.00 in   Overcast
3:54 AM 27.0 °F 11.6 °F 21.9 °F 81% 29.68 in 9.0 mi NW 26.5 mph 35.7 mph 0.00 in   Overcast
5:54 AM 26.1 °F 10.7 °F 19.9 °F 78% 29.77 in 9.0 mi NNW 25.3 mph 36.8 mph 0.00 in   Mostly Cloudy
6:51 AM 24.8 °F 9.0 °F 19.4 °F 80% 29.75 in 10.0 mi NNW 25.3 mph 31.1 mph 0.00 in   Scattered Clouds
6:54 AM 25.0 °F 10.6 °F 19.9 °F 81% 29.81 in 10.0 mi NNW 20.7 mph 29.9 mph 0.00 in   Scattered Clouds
7:01 AM 24.8 °F 9.0 °F 19.4 °F 80% 29.76 in 10.0 mi NW 25.3 mph 32.2 mph N/A   Mostly Cloudy
7:54 AM 26.1 °F 11.3 °F 19.9 °F 78% 29.85 in 8.0 mi NNW 23.0 mph 34.5 mph 0.00 in   Overcast
8:54 AM 25.0 °F 9.2 °F 19.0 °F 78% 29.88 in 3.0 mi NNW 25.3 mph 38.0 mph 0.00 in Snow Blowing Snow
9:54 AM 25.0 °F 10.9 °F 19.0 °F 78% 29.93 in 6.0 mi NNW 19.6 mph 46.0 mph 0.00 in   Overcast
10:54 AM 24.1 °F 7.7 °F 19.0 °F 81% 29.94 in 10.0 mi NNW 26.5 mph 35.7 mph 0.00 in   Overcast
11:54 AM 24.1 °F 8.3 °F 18.0 °F 77% 29.95 in 8.0 mi NNW 24.2 mph 35.7 mph 0.00 in   Overcast
12:54 PM 24.1 °F 11.0 °F 18.0 °F 77% 29.98 in 10.0 mi NNW 16.1 mph 31.1 mph N/A   Overcast
1:54 PM 24.1 °F 7.7 °F 18.0 °F 77% 30.00 in 10.0 mi NNW 26.5 mph 32.2 mph N/A   Overcast
2:54 PM 24.1 °F 10.6 °F 18.0 °F 77% 30.02 in 10.0 mi NNW 17.3 mph 26.5 mph N/A   Overcast
3:54 PM 23.0 °F 9.6 °F 17.1 °F 78% 30.05 in 10.0 mi NNW 16.1 mph 27.6 mph N/A   Overcast
4:13 PM 23.0 °F 7.6 °F 15.8 °F 74% 30.01 in 10.0 mi NW 21.9 mph 28.8 mph N/A   Overcast
4:54 PM 21.9 °F 7.3 °F 16.0 °F 78% 30.08 in 10.0 mi NNW 18.4 mph 25.3 mph N/A   Overcast
5:54 PM 21.9 °F 9.8 °F 15.1 °F 75% 30.09 in 10.0 mi NW 12.7 mph - N/A   Overcast
6:54 PM 21.9 °F 9.8 °F 15.1 °F 75% 30.10 in 10.0 mi NNW 12.7 mph 21.9 mph N/A   Overcast
7:54 PM 21.9 °F 8.7 °F 15.1 °F 75% 30.09 in 10.0 mi NNW 15.0 mph 24.2 mph N/A   Overcast
8:54 PM 21.9 °F 11.0 °F 15.1 °F 75% 30.09 in 10.0 mi NW 10.4 mph - N/A   Mostly Cloudy
9:54 PM 21.0 °F 8.6 °F 15.1 °F 78% 30.11 in 10.0 mi NW 12.7 mph - N/A   Mostly Cloudy
10:54 PM 21.9 °F 9.2 °F 15.1 °F 75% 30.11 in 10.0 mi NW 13.8 mph - N/A   Overcast
11:54 PM 21.9 °F 11.0 °F 15.1 °F 75% 30.11 in 10.0 mi NW 10.4 mph - N/A   Overcast